Weather in Nikolaevka

Ukraine / Kherson District     46°47′10″N   33°15′29″E
temp.,
°C
wind,
m/s
gust,
m/s
humid.,
%
clouds,
%
prec.,
mm/h
press.,
hPa
HPBL,
m
15 may, sat
sat1500:00+12ssw387836 0.0 1012152
03:00+12ssw36866 0.0 1012107
06:00+12ssw37850 0.0 1012145
09:00+20sw575755 0.0 1013701
12:00+23sw564290 0.0 10131834
15:00+24ssw56370 0.0 10122100
18:00+23sw454141 0.0 10131544
21:00+16wsw11611 0.0 101311
16 may, sun
sun1600:00+15nnw116687 0.0 101311
03:00+13nne3374100 0.0 101325
06:00+14ne3576100 0.0 101295
09:00+20ne5755100 0.0 1012493
12:00+25ene564279 0.0 10101308
15:00+26ne5537100 0.0 10081656
18:00+25nne5645100 0.0 1006917
21:00+18n497682 1.0 1005185
17 may, mon
mon1700:00+17ne41091100 2.6 1004274
03:00+17n379598 7.2 1002171
06:00+16n22975 0.1 100245
09:00+19ene238578 0.8 1002393
12:00+20s457873 0.1 1002727
15:00+21sse777073 0.1 10021085
18:00+19ssw798194 0.1 1002725
21:00+16sw91487100 0.4 1005815
18 may, tue
tue1800:00+15ssw6129396 2.8 1007486
03:00+14s4109640 3.1 1006322
06:00+14s49956 0.1 1006266
09:00+19s6878100 0.1 1007486
12:00+21ssw8106783 1.1 10061016
15:00+22ssw9115776 2.2 10061231
18:00+19ssw6966100 0.0 1006626
21:00+17ssw4876100 0.1 1008353
19 may, wed
wed1900:00+14sw599493 0.3 1008279
03:00+12w37943 0.4 1009163
06:00+12wnw3692100 0.0 1010155
09:00+17wnw356595 0.0 1012649
12:00+20w454966 0.4 10121884
15:00+21wnw4542100 0.4 10121917
18:00+19nnw4452100 0.0 1012574
21:00+15n226115 0.0 101322